This is the latest recevied weather packets stored in our database for station/object W7BTL. If no packets are shown the sender has not sent any weather packets the latest 10 day(s).
| Time | Temp. | Humidity | Pressure | Rain* | Wind** | Luminosity | Snow |
|---|---|---|---|---|---|---|---|
| 1787844944 | 26.67° C | 79% | 1012 hPa | 0 mm | - | 184 W/m² | - |
| 1787844644 | 26.67° C | 80% | 1012.1 hPa | 0 mm | - | 178 W/m² | - |
| 1787844344 | 26.67° C | 80% | 1011.9 hPa | 0 mm | - | 152 W/m² | - |
| 1787844043 | 26.67° C | 80% | 1012 hPa | 0 mm | - | 156 W/m² | - |
| 1787843738 | 26.11° C | 81% | 1011.9 hPa | 0 mm | - | 152 W/m² | - |
| 1787843433 | 26.11° C | 82% | 1012 hPa | 0 mm | - | 150 W/m² | - |
| 1787843130 | 25.56° C | 84% | 1011.9 hPa | 0 mm | - | 146 W/m² | - |
| 1787842825 | 25.56° C | 84% | 1011.8 hPa | 0 mm | - | 127 W/m² | - |
| 1787842525 | 25.56° C | 84% | 1011.6 hPa | 0 mm | - | 76 W/m² | - |
| 1787842224 | 25.56° C | 84% | 1011.6 hPa | 0 mm | - | 55 W/m² | - |
| 1787841919 | 25.56° C | 83% | 1011.5 hPa | 0 mm | - | 42 W/m² | - |
| 1787841615 | 25.56° C | 82% | 1011.4 hPa | 0 mm | - | 34 W/m² | - |
| 1787841314 | 26.11° C | 82% | 1011.6 hPa | 0 mm | - | 33 W/m² | - |
| 1787841009 | 26.11° C | 81% | 1011.3 hPa | 0 mm | - | 37 W/m² | - |
| 1787840704 | 26.11° C | 81% | 1011.6 hPa | 0 mm | - | 56 W/m² | - |
| 1787840399 | 25.56° C | 83% | 1011.3 hPa | 0 mm | - | 78 W/m² | - |
| 1787840095 | 25° C | 85% | 1011.4 hPa | 0 mm | - | 84 W/m² | - |
| 1787839794 | 25° C | 86% | 1011.4 hPa | 0 mm | - | 84 W/m² | - |
| 1787839489 | 24.44° C | 86% | 1011.1 hPa | 0 mm | - | 74 W/m² | - |
| 1787839189 | 24.44° C | 86% | 1011.3 hPa | 0 mm | - | 55 W/m² | - |
| 1787838889 | 24.44° C | 86% | 1011.2 hPa | 0 mm | - | 37 W/m² | - |
| 1787838588 | 24.44° C | 86% | 1011.3 hPa | 0 mm | - | 25 W/m² | - |
| 1787838287 | 24.44° C | 86% | 1011.1 hPa | 0 mm | - | 16 W/m² | - |
| 1787837986 | 24.44° C | 86% | 1011 hPa | 0 mm | - | 9 W/m² | - |
| 1787837686 | 24.44° C | 86% | 1010.8 hPa | 0 mm | - | 5 W/m² | - |
* Rain latest hour (hover to see other rain measurements)
** Current wind speed in m/s (hover to see current wind gust speed)